,,,PA_Meas_PMT16A,,PR_Meas_QMR101_102,,RH_Meas_QMH101,,SR_Meas_QMS101,,TA_Meas_QMH101,,GenWind,,GenWind,
date,time,status,PA,status,PR,status,RH,status,SR,status,TA,status,DirAvg,status,SpdAvg,
2009-09-14, 00:00:04,VALID,1006.16,VALID,0,VALID,89.4181,VALID,0,VALID,25.9018,VALID,348,VALID,0.199609,
2009-09-14, 00:01:04,VALID,1006.13,VALID,0,VALID,89.4028,VALID,0,VALID,25.9232,VALID,348,VALID,0.144531,
2009-09-14, 00:02:04,VALID,1006.16,VALID,0,VALID,89.3571,VALID,0,VALID,25.8823,VALID,347,VALID,0.467969,
2009-09-14, 00:03:04,VALID,1006.17,VALID,0,VALID,89.3571,VALID,0,VALID,25.8843,VALID,345,VALID,0.110547,
2009-09-14, 00:04:04,VALID,1006.16,VALID,0,VALID,89.2503,VALID,0,VALID,25.8434,VALID,345,VALID,0.264453,
2009-09-14, 00:05:04,VALID,1006.15,VALID,0,VALID,89.1435,VALID,0,VALID,25.8629,VALID,346,VALID,0.111719,
2009-09-14, 00:06:04,VALID,1006.15,VALID,0,VALID,89.0824,VALID,0,VALID,25.8823,VALID,346,VALID,0.25625,
2009-09-14, 00:07:04,VALID,1006.14,VALID,0,VALID,89.0824,VALID,0,VALID,25.8629,VALID,346,VALID,0,
2009-09-14, 00:08:04,VALID,1006.14,VALID,0,VALID,89.0748,VALID,0,VALID,25.8239,VALID,346,VALID,0.153906,
2009-09-14, 00:09:04,VALID,1006.11,VALID,0,VALID,89.1892,VALID,0,VALID,25.8239,VALID,346,VALID,0,
2009-09-14, 00:10:04,VALID,1006.14,VALID,0,VALID,89.2884,VALID,0,VALID,25.8259,VALID,346,VALID,0,
2009-09-14, 00:11:04,VALID,1006.13,VALID,0,VALID,89.3418,VALID,0,VALID,25.8044,VALID,346,VALID,0.189453,
2009-09-14, 00:12:04,VALID,1006.09,VALID,0,VALID,89.3723,VALID,0,VALID,25.7655,VALID,346,VALID,0.391016,
2009-09-14, 00:13:04,VALID,1006.1,VALID,0,VALID,89.4028,VALID,0,VALID,25.746,VALID,346,VALID,0,
2009-09-14, 00:14:04,VALID,1006.09,VALID,0,VALID,89.4639,VALID,0,VALID,25.7265,VALID,346,VALID,0.297266,
2009-09-14, 00:15:04,VALID,1006.07,VALID,0,VALID,89.4791,VALID,0,VALID,25.6895,VALID,346,VALID,0.425781,
2009-09-14, 00:16:04,VALID,1006.03,VALID,0,VALID,89.7309,VALID,0,VALID,25.5707,VALID,346,VALID,0.321875,
2009-09-14, 00:17:04,VALID,1006,VALID,0,VALID,89.9445,VALID,0,VALID,25.5142,VALID,346,VALID,0.424609,
2009-09-14, 00:18:04,VALID,1005.98,VALID,0,VALID,90.1886,VALID,0,VALID,25.4558,VALID,346,VALID,0.314063,
2009-09-14, 00:19:04,VALID,1005.97,VALID,0,VALID,90.4327,VALID,0,VALID,25.3584,VALID,346,VALID,0.366797,
2009-09-14, 00:20:04,VALID,1005.92,VALID,0,VALID,90.7913,VALID,0,VALID,25.2592,VALID,346,VALID,0.28125,
2009-09-14, 00:21:04,VALID,1005.88,VALID,0,VALID,91.1041,VALID,0.100563,VALID,25.2397,VALID,346,VALID,0.0191406,
2009-09-14, 00:22:04,VALID,1005.88,VALID,0,VALID,91.3787,VALID,0,VALID,25.1813,VALID,346,VALID,0,
2009-09-14, 00:23:04,VALID,1005.86,VALID,0,VALID,91.6305,VALID,0,VALID,25.1423,VALID,346,VALID,0,
2009-09-14, 00:24:04,VALID,1005.85,VALID,0,VALID,91.8594,VALID,0,VALID,25.1229,VALID,346,VALID,0.00429688,
2009-09-14, 00:25:04,VALID,1005.83,VALID,0,VALID,92.0882,VALID,0,VALID,25.1248,VALID,346,VALID,0.337891,
2009-09-14, 00:26:04,VALID,1005.84,VALID,0,VALID,92.2332,VALID,0,VALID,25.0839,VALID,346,VALID,0.36875,
2009-09-14, 00:27:04,VALID,1005.83,VALID,0,VALID,92.401,VALID,0,VALID,25.0644,VALID,346,VALID,0.533203,
2009-09-14, 00:28:04,VALID,1005.82,VALID,0,VALID,92.4849,VALID,0.100563,VALID,25.045,VALID,346,VALID,0.428516,
2009-09-14, 00:29:04,VALID,1005.81,VALID,0,VALID,92.6222,VALID,0,VALID,25.0255,VALID,338,VALID,0.502734,
2009-09-14, 00:30:04,VALID,1005.78,VALID,0,VALID,92.6299,VALID,0,VALID,25.006,VALID,359,VALID,0.532812,
2009-09-14, 00:31:04,VALID,1005.74,VALID,0,VALID,92.6985,VALID,0,VALID,24.9866,VALID,359,VALID,0.724219,
2009-09-14, 00:32:04,VALID,1005.76,VALID,0,VALID,92.9274,VALID,0.100563,VALID,24.9866,VALID,323,VALID,0.439063,
2009-09-14, 00:33:04,VALID,1005.73,VALID,0,VALID,93.0189,VALID,0,VALID,25.006,VALID,334,VALID,0.402734,
2009-09-14, 00:34:04,VALID,1005.69,VALID,0,VALID,93.1105,VALID,0,VALID,25.045,VALID,344,VALID,0.325391,
2009-09-14, 00:35:04,VALID,1005.68,VALID,0,VALID,93.0495,VALID,0.100563,VALID,25.0839,VALID,344,VALID,0.0195313,
2009-09-14, 00:36:04,VALID,1005.64,VALID,0,VALID,92.9961,VALID,0.100563,VALID,25.1229,VALID,357,VALID,0.823828,
2009-09-14, 00:37:04,VALID,1005.6,VALID,0,VALID,92.874,VALID,0,VALID,25.1618,VALID,358,VALID,0.513672,
2009-09-14, 00:38:04,VALID,1005.56,VALID,0,VALID,92.7214,VALID,0.100563,VALID,25.2007,VALID,345,VALID,0.485156,
2009-09-14, 00:39:04,VALID,1005.55,VALID,0,VALID,92.5307,VALID,0.100563,VALID,25.2397,VALID,349,VALID,0.462891,
2009-09-14, 00:40:04,VALID,1005.52,VALID,0,VALID,92.2713,VALID,0.100563,VALID,25.2981,VALID,351,VALID,0.530078,
2009-09-14, 00:41:04,VALID,1005.51,VALID,0,VALID,92.1187,VALID,0,VALID,25.3176,VALID,347,VALID,0.286328,
2009-09-14, 00:42:04,VALID,1005.51,VALID,0,VALID,91.9662,VALID,0,VALID,25.3565,VALID,347,VALID,0.1,
2009-09-14, 00:43:04,VALID,1005.48,VALID,0,VALID,91.8441,VALID,0,VALID,25.3955,VALID,343,VALID,0.226172,
2009-09-14, 00:44:04,VALID,1005.49,VALID,0,VALID,91.6686,VALID,0,VALID,25.4149,VALID,339,VALID,0.467187,
2009-09-14, 00:45:04,VALID,1005.48,VALID,0,VALID,91.4626,VALID,0,VALID,25.4344,VALID,339,VALID,0.268359,
2009-09-14, 00:46:04,VALID,1005.47,VALID,0,VALID,91.2796,VALID,0.100563,VALID,25.4539,VALID,338,VALID,0.404687,
2009-09-14, 00:47:04,VALID,1005.46,VALID,0,VALID,91.1422,VALID,0,VALID,25.5142,VALID,7,VALID,0.272656,
2009-09-14, 00:48:04,VALID,1005.44,VALID,0,VALID,90.9973,VALID,0,VALID,25.5532,VALID,354,VALID,0,
2009-09-14, 00:49:04,VALID,1005.42,VALID,0,VALID,90.86,VALID,0,VALID,25.5513,VALID,353,VALID,0.572266,
2009-09-14, 00:50:04,VALID,1005.41,VALID,0,VALID,90.6769,VALID,0,VALID,25.5902,VALID,350,VALID,0,
2009-09-14, 00:51:04,VALID,1005.4,VALID,0,VALID,90.4633,VALID,0,VALID,25.6506,VALID,350,VALID,0.473828,
2009-09-14, 00:52:04,VALID,1005.43,VALID,0,VALID,90.1886,VALID,0,VALID,25.6486,VALID,337,VALID,0.364062,
2009-09-14, 00:53:04,VALID,1005.43,VALID,0,VALID,90.0284,VALID,0,VALID,25.6681,VALID,353,VALID,0.761328,
2009-09-14, 00:54:04,VALID,1005.44,VALID,0,VALID,89.8835,VALID,0,VALID,25.6876,VALID,349,VALID,0.658203,
2009-09-14, 00:55:04,VALID,1005.43,VALID,0,VALID,89.7919,VALID,0,VALID,25.7285,VALID,350,VALID,0.406641,
2009-09-14, 00:56:04,VALID,1005.45,VALID,0,VALID,89.6393,VALID,0,VALID,25.7285,VALID,347,VALID,0.403516,
2009-09-14, 00:57:04,VALID,1005.42,VALID,0,VALID,89.6012,VALID,0,VALID,25.6876,VALID,346,VALID,0,
2009-09-14, 00:58:04,VALID,1005.39,VALID,0,VALID,89.6241,VALID,0,VALID,25.7285,VALID,346,VALID,0.232812,
2009-09-14, 00:59:04,VALID,1005.38,VALID,0,VALID,89.6546,VALID,0,VALID,25.7285,VALID,347,VALID,0.516016,
2009-09-14, 01:00:04,VALID,1005.34,VALID,0,VALID,89.7843,VALID,0,VALID,25.6876,VALID,347,VALID,0.746875,
2009-09-14, 01:01:04,VALID,1005.32,VALID,0,VALID,89.9064,VALID,0,VALID,25.6486,VALID,348,VALID,0.587891,
2009-09-14, 01:02:04,VALID,1005.29,VALID,0,VALID,89.9216,VALID,0,VALID,25.67,VALID,347,VALID,0.301953,
2009-09-14, 01:03:04,VALID,1005.28,VALID,0,VALID,89.9292,VALID,0,VALID,25.6681,VALID,348,VALID,0.515625,
2009-09-14, 01:04:04,VALID,1005.23,VALID,0,VALID,89.9369,VALID,0.100563,VALID,25.6486,VALID,336,VALID,0.378516,
2009-09-14, 01:05:04,VALID,1005.24,VALID,0,VALID,89.914,VALID,0,VALID,25.6292,VALID,356,VALID,0.566406,
2009-09-14, 01:06:04,VALID,1005.26,VALID,0,VALID,89.914,VALID,0,VALID,25.67,VALID,354,VALID,0.626172,
2009-09-14, 01:07:04,VALID,1005.26,VALID,0,VALID,89.8301,VALID,0,VALID,25.6292,VALID,354,VALID,0.344922,
2009-09-14, 01:08:04,VALID,1005.2,VALID,0,VALID,89.7461,VALID,0,VALID,25.6311,VALID,352,VALID,0.511328,
2009-09-14, 01:09:04,VALID,1005.21,VALID,0,VALID,89.8987,VALID,0,VALID,25.5902,VALID,352,VALID,0.423438,
2009-09-14, 01:10:04,VALID,1005.19,VALID,0,VALID,89.9064,VALID,0,VALID,25.5921,VALID,352,VALID,0.511719,
2009-09-14, 01:11:04,VALID,1005.14,VALID,0,VALID,90.0589,VALID,0,VALID,25.5707,VALID,352,VALID,0.471484,
2009-09-14, 01:12:04,VALID,1005.15,VALID,0,VALID,90.0818,VALID,0,VALID,25.5532,VALID,352,VALID,0.279687,
2009-09-14, 01:13:04,VALID,1005.09,VALID,0,VALID,90.2573,VALID,0,VALID,25.5123,VALID,352,VALID,0,
2009-09-14, 01:14:04,VALID,1005.08,VALID,0,VALID,90.3107,VALID,0,VALID,25.5123,VALID,352,VALID,0.096875,
2009-09-14, 01:15:04,VALID,1005.1,VALID,0,VALID,90.4099,VALID,0,VALID,25.5337,VALID,18,VALID,0.378906,
2009-09-14, 01:16:04,VALID,1005.09,VALID,0,VALID,90.5014,VALID,0,VALID,25.5318,VALID,344,VALID,0.595312,
2009-09-14, 01:17:04,VALID,1005.07,VALID,0,VALID,90.4175,VALID,0,VALID,25.5318,VALID,329,VALID,0.260156,
2009-09-14, 01:18:04,VALID,1005.08,VALID,0,VALID,90.4099,VALID,0,VALID,25.6116,VALID,355,VALID,0.470313,
2009-09-14, 01:19:04,VALID,1005.08,VALID,0,VALID,90.3031,VALID,0,VALID,25.5902,VALID,355,VALID,0.0449219,
2009-09-14, 01:20:04,VALID,1005.05,VALID,0,VALID,90.181,VALID,0,VALID,25.6097,VALID,355,VALID,0,
2009-09-14, 01:21:04,VALID,1005.05,VALID,0,VALID,90.1505,VALID,0,VALID,25.6311,VALID,355,VALID,0.645703,
2009-09-14, 01:22:04,VALID,1005.05,VALID,0,VALID,90.0818,VALID,0,VALID,25.6292,VALID,338,VALID,0.772266,
2009-09-14, 01:23:04,VALID,1005.05,VALID,0,VALID,89.9216,VALID,0,VALID,25.6486,VALID,347,VALID,0.270703,
2009-09-14, 01:24:04,VALID,1005.03,VALID,0,VALID,89.8453,VALID,0,VALID,25.6486,VALID,352,VALID,0.852734,
2009-09-14, 01:25:04,VALID,1005.04,VALID,0,VALID,89.7385,VALID,0,VALID,25.6876,VALID,349,VALID,0.592188,
2009-09-14, 01:26:04,VALID,1005.06,VALID,0,VALID,89.6241,VALID,0,VALID,25.6876,VALID,342,VALID,0.226563,
2009-09-14, 01:27:04,VALID,1005.06,VALID,0,VALID,89.6622,VALID,0,VALID,25.6895,VALID,339,VALID,0.0675781,
2009-09-14, 01:28:04,VALID,1005.06,VALID,0,VALID,89.6851,VALID,0,VALID,25.67,VALID,344,VALID,0.526953,
2009-09-14, 01:29:04,VALID,1005.06,VALID,0,VALID,89.7156,VALID,0,VALID,25.6895,VALID,355,VALID,0.514844,
2009-09-14, 01:30:04,VALID,1005.05,VALID,0,VALID,89.7461,VALID,0,VALID,25.6681,VALID,321,VALID,0.592578,
2009-09-14, 01:31:04,VALID,1005.04,VALID,0,VALID,89.6317,VALID,0,VALID,25.6681,VALID,343,VALID,0.604688,
2009-09-14, 01:32:04,VALID,1005.05,VALID,0,VALID,89.6622,VALID,0,VALID,25.6681,VALID,332,VALID,0.439453,
2009-09-14, 01:33:04,VALID,1005.07,VALID,0,VALID,89.6546,VALID,0,VALID,25.6681,VALID,339,VALID,0.316406,
2009-09-14, 01:34:04,VALID,1005.05,VALID,0,VALID,89.6851,VALID,0,VALID,25.6895,VALID,354,VALID,0.266797,
2009-09-14, 01:35:04,VALID,1005.07,VALID,0,VALID,89.7156,VALID,0,VALID,25.6681,VALID,352,VALID,0.752344,
2009-09-14, 01:36:04,VALID,1005.06,VALID,0,VALID,89.7156,VALID,0,VALID,25.6681,VALID,344,VALID,0.587891,
2009-09-14, 01:37:04,VALID,1005.09,VALID,0,VALID,89.5859,VALID,0,VALID,25.7071,VALID,350,VALID,0.410156,
2009-09-14, 01:38:04,VALID,1005.1,VALID,0,VALID,89.4868,VALID,0,VALID,25.7285,VALID,353,VALID,0.628125,
2009-09-14, 01:39:04,VALID,1005.08,VALID,0,VALID,89.5097,VALID,0,VALID,25.7285,VALID,350,VALID,0.603516,
2009-09-14, 01:40:04,VALID,1005.1,VALID,0,VALID,89.5173,VALID,0,VALID,25.7285,VALID,344,VALID,0.557422,
2009-09-14, 01:41:04,VALID,1005.1,VALID,0,VALID,89.5554,VALID,0,VALID,25.748,VALID,346,VALID,0.66875,
2009-09-14, 01:42:04,VALID,1005.1,VALID,0,VALID,89.4639,VALID,0,VALID,25.7265,VALID,350,VALID,0.550391,
2009-09-14, 01:43:04,VALID,1005.08,VALID,0,VALID,89.4715,VALID,0,VALID,25.709,VALID,351,VALID,0.497656,
2009-09-14, 01:44:04,VALID,1005.1,VALID,0,VALID,89.5936,VALID,0,VALID,25.7071,VALID,334,VALID,0.370703,
2009-09-14, 01:45:04,VALID,1005.12,VALID,0,VALID,89.5859,VALID,0,VALID,25.6681,VALID,352,VALID,0.554688,
2009-09-14, 01:46:04,VALID,1005.1,VALID,0,VALID,89.7156,VALID,0,VALID,25.6895,VALID,350,VALID,0.442969,
2009-09-14, 01:47:04,VALID,1005.1,VALID,0,VALID,89.7843,VALID,0,VALID,25.6486,VALID,343,VALID,0.420703,
2009-09-14, 01:48:04,VALID,1005.13,VALID,0,VALID,89.9903,VALID,0,VALID,25.6681,VALID,351,VALID,1.04531,
2009-09-14, 01:49:04,VALID,1005.13,VALID,0,VALID,89.8987,VALID,0,VALID,25.6876,VALID,281,VALID,0.414063,
2009-09-14, 01:50:04,VALID,1005.12,VALID,0,VALID,89.8606,VALID,0,VALID,25.7071,VALID,2,VALID,0.937109,
2009-09-14, 01:51:04,VALID,1005.13,VALID,0,VALID,89.8911,VALID,0.100563,VALID,25.7071,VALID,350,VALID,0.544531,
2009-09-14, 01:52:04,VALID,1005.14,VALID,0,VALID,89.9064,VALID,0,VALID,25.6876,VALID,301,VALID,0.308203,
2009-09-14, 01:53:04,VALID,1005.14,VALID,0,VALID,89.9064,VALID,0,VALID,25.6876,VALID,301,VALID,0.155078,
2009-09-14, 01:54:04,VALID,1005.13,VALID,0,VALID,89.9826,VALID,0,VALID,25.6681,VALID,350,VALID,0.497266,
2009-09-14, 01:55:04,VALID,1005.14,VALID,0,VALID,90.0513,VALID,0,VALID,25.67,VALID,1,VALID,0.504687,
2009-09-14, 01:56:04,VALID,1005.14,VALID,0,VALID,90.1047,VALID,0,VALID,25.67,VALID,343,VALID,0.337891,
2009-09-14, 01:57:04,VALID,1005.13,VALID,0,VALID,90.1581,VALID,0,VALID,25.6486,VALID,343,VALID,0.430078,
2009-09-14, 01:58:04,VALID,1005.13,VALID,0,VALID,90.1276,VALID,0,VALID,25.67,VALID,343,VALID,0.457422,
2009-09-14, 01:59:04,VALID,1005.12,VALID,0,VALID,90.1123,VALID,0,VALID,25.6077,VALID,341,VALID,0.539844,
2009-09-14, 02:00:04,VALID,1005.15,VALID,0,VALID,90.0666,VALID,0,VALID,25.67,VALID,348,VALID,0.511719,
2009-09-14, 02:01:04,VALID,1005.1,VALID,0,VALID,90.0666,VALID,0,VALID,25.6506,VALID,348,VALID,0.400781,
2009-09-14, 02:02:04,VALID,1005.09,VALID,0,VALID,90.0971,VALID,0,VALID,25.6097,VALID,347,VALID,0.701953,
2009-09-14, 02:03:04,VALID,1005.11,VALID,0,VALID,90.12,VALID,0,VALID,25.6097,VALID,13,VALID,0.475391,
2009-09-14, 02:04:04,VALID,1005.09,VALID,0,VALID,90.0589,VALID,0,VALID,25.6097,VALID,349,VALID,0.60625,
2009-09-14, 02:05:04,VALID,1005.08,VALID,0,VALID,90.1047,VALID,0,VALID,25.6116,VALID,332,VALID,0.339063,
2009-09-14, 02:06:04,VALID,1005.06,VALID,0,VALID,90.1352,VALID,0,VALID,25.6116,VALID,348,VALID,0.390234,
2009-09-14, 02:07:04,VALID,1005.08,VALID,0,VALID,90.1657,VALID,0,VALID,25.6311,VALID,348,VALID,0.869141,
2009-09-14, 02:08:04,VALID,1005.08,VALID,0,VALID,90.1276,VALID,0,VALID,25.6292,VALID,348,VALID,0.676562,
2009-09-14, 02:09:04,VALID,1005.07,VALID,0,VALID,90.0208,VALID,0,VALID,25.6292,VALID,347,VALID,0.586328,
2009-09-14, 02:10:04,VALID,1005.07,VALID,0,VALID,89.975,VALID,0,VALID,25.6292,VALID,324,VALID,0.280078,
2009-09-14, 02:11:04,VALID,1005.07,VALID,0,VALID,89.9216,VALID,0,VALID,25.6292,VALID,324,VALID,0.282813,
2009-09-14, 02:12:04,VALID,1005.09,VALID,0,VALID,89.9369,VALID,0,VALID,25.6486,VALID,347,VALID,0.198437,
2009-09-14, 02:13:04,VALID,1005.07,VALID,0,VALID,89.8987,VALID,0,VALID,25.6486,VALID,335,VALID,0.236328,
2009-09-14, 02:14:04,VALID,1005.1,VALID,0,VALID,89.9292,VALID,0,VALID,25.6506,VALID,317,VALID,0.00664063,
2009-09-14, 02:15:04,VALID,1005.05,VALID,0,VALID,89.9216,VALID,0,VALID,25.6097,VALID,340,VALID,0.408984,
2009-09-14, 02:16:04,VALID,1005.05,VALID,0,VALID,90.0132,VALID,0,VALID,25.6311,VALID,345,VALID,0.126172,
2009-09-14, 02:17:04,VALID,1005.04,VALID,0,VALID,90.0742,VALID,0,VALID,25.5902,VALID,349,VALID,0.158203,
2009-09-14, 02:18:04,VALID,1005.05,VALID,0,VALID,90.1352,VALID,0,VALID,25.6116,VALID,350,VALID,0.228125,
2009-09-14, 02:19:04,VALID,1005.05,VALID,0,VALID,90.181,VALID,0,VALID,25.5921,VALID,343,VALID,0.558203,
2009-09-14, 02:20:04,VALID,1005.04,VALID,0,VALID,90.1429,VALID,0,VALID,25.5707,VALID,343,VALID,0.235156,
2009-09-14, 02:21:04,VALID,1005.03,VALID,0,VALID,90.2115,VALID,0,VALID,25.5727,VALID,350,VALID,0.662109,
2009-09-14, 02:22:04,VALID,1005.06,VALID,0,VALID,90.1734,VALID,0,VALID,25.5707,VALID,348,VALID,0.505469,
2009-09-14, 02:23:04,VALID,1005.03,VALID,0,VALID,90.1963,VALID,0,VALID,25.5727,VALID,352,VALID,0.670313,
2009-09-14, 02:24:04,VALID,1005.04,VALID,0,VALID,90.1505,VALID,0,VALID,25.5318,VALID,352,VALID,0.472266,
2009-09-14, 02:25:04,VALID,1005.02,VALID,0,VALID,90.181,VALID,0,VALID,25.5532,VALID,347,VALID,0.651953,
2009-09-14, 02:26:04,VALID,1005.02,VALID,0,VALID,90.1429,VALID,0,VALID,25.5707,VALID,351,VALID,0.782422,
2009-09-14, 02:27:04,VALID,1004.99,VALID,0,VALID,90.0055,VALID,0,VALID,25.5902,VALID,333,VALID,0.392969,
2009-09-14, 02:28:04,VALID,1004.99,VALID,0,VALID,89.9598,VALID,0,VALID,25.6116,VALID,345,VALID,0.559375,
2009-09-14, 02:29:04,VALID,1004.97,VALID,0,VALID,89.8758,VALID,0,VALID,25.6116,VALID,348,VALID,0.294141,
2009-09-14, 02:30:04,VALID,1004.96,VALID,0,VALID,89.8682,VALID,0,VALID,25.6116,VALID,348,VALID,0.555859,
2009-09-14, 02:31:04,VALID,1004.98,VALID,0,VALID,89.8682,VALID,0,VALID,25.6116,VALID,349,VALID,0.330859,
2009-09-14, 02:32:04,VALID,1005,VALID,0,VALID,89.8072,VALID,0,VALID,25.6116,VALID,349,VALID,0,
2009-09-14, 02:33:04,VALID,1004.99,VALID,0,VALID,89.8682,VALID,0,VALID,25.6116,VALID,349,VALID,0,
2009-09-14, 02:34:04,VALID,1004.99,VALID,0,VALID,89.8682,VALID,0,VALID,25.6116,VALID,349,VALID,0,
2009-09-14, 02:35:04,VALID,1004.99,VALID,0,VALID,89.9826,VALID,0,VALID,25.5707,VALID,333,VALID,0,
2009-09-14, 02:36:04,VALID,1004.99,VALID,0,VALID,90.1276,VALID,0.100563,VALID,25.5513,VALID,342,VALID,0.319922,
2009-09-14, 02:37:04,VALID,1004.98,VALID,0,VALID,90.1657,VALID,0,VALID,25.5707,VALID,344,VALID,0.344141,
2009-09-14, 02:38:04,VALID,1004.96,VALID,0,VALID,90.0971,VALID,0,VALID,25.5902,VALID,348,VALID,0.983984,
2009-09-14, 02:39:04,VALID,1004.94,VALID,0,VALID,89.8224,VALID,0,VALID,25.6506,VALID,349,VALID,0.550391,
2009-09-14, 02:40:04,VALID,1004.95,VALID,0,VALID,89.6622,VALID,0,VALID,25.6292,VALID,352,VALID,0.477734,
2009-09-14, 02:41:04,VALID,1004.95,VALID,0,VALID,89.5783,VALID,0,VALID,25.67,VALID,344,VALID,0.588672,
2009-09-14, 02:42:04,VALID,1004.95,VALID,0,VALID,89.5402,VALID,0,VALID,25.6486,VALID,351,VALID,0.399609,
2009-09-14, 02:43:04,VALID,1004.91,VALID,0,VALID,89.5478,VALID,0,VALID,25.67,VALID,351,VALID,0.875781,
2009-09-14, 02:44:04,VALID,1004.92,VALID,0,VALID,89.4944,VALID,0,VALID,25.6681,VALID,355,VALID,0.793359,
2009-09-14, 02:45:04,VALID,1004.92,VALID,0,VALID,89.441,VALID,0,VALID,25.6895,VALID,349,VALID,0.783984,
2009-09-14, 02:46:04,VALID,1004.93,VALID,0,VALID,89.38,VALID,0,VALID,25.6895,VALID,344,VALID,0.616016,
2009-09-14, 02:47:04,VALID,1004.92,VALID,0,VALID,89.3723,VALID,0,VALID,25.6895,VALID,307,VALID,0.673828,
2009-09-14, 02:48:04,VALID,1004.94,VALID,0,VALID,89.3571,VALID,0,VALID,25.709,VALID,287,VALID,0.326953,
2009-09-14, 02:49:04,VALID,1004.92,VALID,0,VALID,89.38,VALID,0,VALID,25.6895,VALID,320,VALID,0.0589844,
2009-09-14, 02:50:04,VALID,1004.93,VALID,0,VALID,89.4181,VALID,0,VALID,25.67,VALID,320,VALID,0.046875,
2009-09-14, 02:51:04,VALID,1004.96,VALID,0,VALID,89.502,VALID,0,VALID,25.6506,VALID,320,VALID,0.0589844,
2009-09-14, 02:52:04,VALID,1004.89,VALID,0,VALID,89.6241,VALID,0,VALID,25.633,VALID,320,VALID,0,
2009-09-14, 02:53:04,VALID,1004.9,VALID,0,VALID,89.6775,VALID,0,VALID,25.5902,VALID,320,VALID,0.00117188,
2009-09-14, 02:54:04,VALID,1004.91,VALID,0,VALID,89.7996,VALID,0,VALID,25.5513,VALID,320,VALID,0.182031,
2009-09-14, 02:55:04,VALID,1004.89,VALID,0,VALID,89.9064,VALID,0,VALID,25.5513,VALID,352,VALID,0.692578,
2009-09-14, 02:56:04,VALID,1004.86,VALID,0,VALID,89.9826,VALID,0,VALID,25.5318,VALID,349,VALID,1.07891,
2009-09-14, 02:57:04,VALID,1004.82,VALID,0,VALID,90.0284,VALID,0,VALID,25.5532,VALID,326,VALID,0.462891,
2009-09-14, 02:58:04,VALID,1004.84,VALID,0,VALID,90.0132,VALID,0,VALID,25.5532,VALID,294,VALID,0.364844,
2009-09-14, 02:59:04,VALID,1004.85,VALID,0,VALID,90.0284,VALID,0,VALID,25.5337,VALID,322,VALID,0.409375,
2009-09-14, 03:00:04,VALID,1004.84,VALID,0,VALID,90.0132,VALID,0,VALID,25.5318,VALID,356,VALID,0.396094,
2009-09-14, 03:01:04,VALID,1004.83,VALID,0,VALID,89.9903,VALID,0,VALID,25.5727,VALID,356,VALID,0.684766,
2009-09-14, 03:02:04,VALID,1004.79,VALID,0,VALID,89.8835,VALID,0,VALID,25.5513,VALID,348,VALID,0,
2009-09-14, 03:03:04,VALID,1004.83,VALID,0,VALID,89.8835,VALID,0,VALID,25.5318,VALID,348,VALID,0.123047,
2009-09-14, 03:04:04,VALID,1004.82,VALID,0,VALID,89.8606,VALID,0,VALID,25.5513,VALID,357,VALID,0.424609,
2009-09-14, 03:05:04,VALID,1004.84,VALID,0,VALID,89.8148,VALID,0,VALID,25.5727,VALID,357,VALID,0.347266,
2009-09-14, 03:06:04,VALID,1004.83,VALID,0,VALID,89.7385,VALID,0,VALID,25.5921,VALID,350,VALID,0.558203,
2009-09-14, 03:07:04,VALID,1004.86,VALID,0,VALID,89.6851,VALID,0,VALID,25.5513,VALID,307,VALID,0.279297,
2009-09-14, 03:08:04,VALID,1004.88,VALID,0,VALID,89.5936,VALID,0,VALID,25.5707,VALID,286,VALID,0.059375,
2009-09-14, 03:09:04,VALID,1004.9,VALID,0,VALID,89.6012,VALID,0,VALID,25.5707,VALID,347,VALID,0.183203,
2009-09-14, 03:10:04,VALID,1004.87,VALID,0,VALID,89.5936,VALID,0,VALID,25.5707,VALID,2,VALID,0.513672,
2009-09-14, 03:11:04,VALID,1004.9,VALID,0,VALID,89.5936,VALID,0,VALID,25.5727,VALID,345,VALID,0.533203,
2009-09-14, 03:12:04,VALID,1004.85,VALID,0,VALID,89.502,VALID,0,VALID,25.5727,VALID,4,VALID,0.608594,
2009-09-14, 03:13:04,VALID,1004.87,VALID,0,VALID,89.5936,VALID,0,VALID,25.5337,VALID,4,VALID,0.490234,
2009-09-14, 03:14:04,VALID,1004.86,VALID,0,VALID,89.5859,VALID,0,VALID,25.5551,VALID,290,VALID,0.340625,
2009-09-14, 03:15:04,VALID,1004.87,VALID,0,VALID,89.5936,VALID,0,VALID,25.5357,VALID,299,VALID,0.229687,
2009-09-14, 03:16:04,VALID,1004.82,VALID,0,VALID,89.5402,VALID,0,VALID,25.5551,VALID,357,VALID,0.714844,
2009-09-14, 03:17:04,VALID,1004.87,VALID,0,VALID,89.2808,VALID,0,VALID,25.5727,VALID,352,VALID,0.382813,
2009-09-14, 03:18:04,VALID,1004.85,VALID,0,VALID,89.1435,VALID,0,VALID,25.6136,VALID,352,VALID,0.669141,
2009-09-14, 03:19:04,VALID,1004.85,VALID,0,VALID,89.0595,VALID,0,VALID,25.6311,VALID,353,VALID,0.775391,
2009-09-14, 03:20:04,VALID,1004.86,VALID,0,VALID,88.907,VALID,0,VALID,25.67,VALID,355,VALID,0.421484,
2009-09-14, 03:21:04,VALID,1004.9,VALID,0,VALID,88.701,VALID,0,VALID,25.67,VALID,349,VALID,0.426953,
2009-09-14, 03:22:04,VALID,1004.88,VALID,0,VALID,88.556,VALID,0,VALID,25.7109,VALID,345,VALID,0.64375,
2009-09-14, 03:23:04,VALID,1004.9,VALID,0,VALID,88.5103,VALID,0,VALID,25.7285,VALID,290,VALID,0.471094,
2009-09-14, 03:24:04,VALID,1004.87,VALID,0,VALID,88.4492,VALID,0,VALID,25.7304,VALID,289,VALID,0.142578,
2009-09-14, 03:25:04,VALID,1004.85,VALID,0,VALID,88.3806,VALID,0,VALID,25.7499,VALID,289,VALID,0.00429688,
2009-09-14, 03:26:04,VALID,1004.82,VALID,0,VALID,88.4798,VALID,0,VALID,25.7499,VALID,292,VALID,0.262109,
2009-09-14, 03:27:04,VALID,1004.82,VALID,0,VALID,88.5026,VALID,0,VALID,25.7265,VALID,351,VALID,0.685547,
2009-09-14, 03:28:04,VALID,1004.82,VALID,0,VALID,88.5332,VALID,0,VALID,25.7285,VALID,347,VALID,0.683203,
2009-09-14, 03:29:04,VALID,1004.79,VALID,0,VALID,88.4645,VALID,0,VALID,25.6876,VALID,349,VALID,0.774219,
2009-09-14, 03:30:04,VALID,1004.8,VALID,0,VALID,88.5026,VALID,0,VALID,25.6895,VALID,354,VALID,0.761328,
2009-09-14, 03:31:04,VALID,1004.8,VALID,0,VALID,88.6705,VALID,0,VALID,25.6292,VALID,356,VALID,1.03945,
2009-09-14, 03:32:04,VALID,1004.78,VALID,0,VALID,88.7849,VALID,0,VALID,25.6525,VALID,355,VALID,0.509375,
2009-09-14, 03:33:04,VALID,1004.77,VALID,0,VALID,88.8307,VALID,0,VALID,25.6097,VALID,339,VALID,0.592188,
2009-09-14, 03:34:04,VALID,1004.77,VALID,0,VALID,88.8612,VALID,0,VALID,25.6116,VALID,353,VALID,0.335547,
2009-09-14, 03:35:04,VALID,1004.78,VALID,0,VALID,89.029,VALID,0,VALID,25.6116,VALID,339,VALID,0.572656,
2009-09-14, 03:36:04,VALID,1004.75,VALID,0,VALID,89.1053,VALID,0,VALID,25.6116,VALID,342,VALID,0.148047,
2009-09-14, 03:37:04,VALID,1004.76,VALID,0,VALID,89.1816,VALID,0,VALID,25.5707,VALID,340,VALID,0.144531,
2009-09-14, 03:38:04,VALID,1004.76,VALID,0,VALID,89.2503,VALID,0,VALID,25.5921,VALID,322,VALID,0.0304688,
2009-09-14, 03:39:04,VALID,1004.74,VALID,0,VALID,89.2808,VALID,0,VALID,25.5921,VALID,322,VALID,0,
2009-09-14, 03:40:04,VALID,1004.75,VALID,0,VALID,89.3876,VALID,0,VALID,25.5513,VALID,304,VALID,0.338281,
2009-09-14, 03:41:04,VALID,1004.74,VALID,0,VALID,89.4791,VALID,0,VALID,25.5513,VALID,284,VALID,0.141016,
2009-09-14, 03:42:04,VALID,1004.73,VALID,0,VALID,89.5783,VALID,0,VALID,25.5337,VALID,284,VALID,0.232031,
2009-09-14, 03:43:04,VALID,1004.73,VALID,0,VALID,89.7309,VALID,0,VALID,25.5746,VALID,290,VALID,0.261719,
2009-09-14, 03:44:04,VALID,1004.76,VALID,0,VALID,89.708,VALID,0,VALID,25.5727,VALID,341,VALID,0.329297,